Theta_e
320 320 320 320 321 321 321 322 322 322 323 323 323 323 323 323 323 323 323 323 323 323 323 323 325 324 325 325 326 325 323 315 313 311 308 313 321 329 329 336 338 332 323 313 312 311 308 310 310 310 312 312 310 310 310 312 309 310 303 301 298 300 299 303 300 302 302 300 303 302 303 302 301 303 303 303 303 303 305 304 306 307 307 309 309 307 307 310
320 320 320 320 321 321 321 321 322 322 323 323 323 323 323 323 323 323 323 323 323 323 323 324 324 325 325 325 325 324 321 316 313 311 311 324 330 329 337 339 335 329 321 312 310 309 307 307 309 310 310 308 310 309 310 310 311 306 303 301 297 302 302 304 304 305 301 302 304 304 300 301 302 302 304 301 303 304 304 305 306 305 307 309 309 308 306 309
319 320 320 320 321 321 321 321 321 322 322 322 322 323 323 322 323 323 323 323 323 323 323 324 324 324 325 325 324 322 319 316 306 306 311 334 338 335 340 337 332 327 314 312 311 310 309 309 309 309 308 306 307 306 308 308 308 307 303 299 300 304 303 302 304 303 304 304 303 303 303 299 302 302 304 301 302 304 302 303 306 305 306 308 309 309 307 308
319 319 319 320 320 321 321 321 321 322 322 322 322 322 322 322 322 323 322 323 323 323 323 323 324 324 324 324 325 321 316 312 305 308 314 332 335 339 339 334 329 323 312 311 310 309 308 310 309 309 307 304 304 309 304 308 305 307 302 300 302 304 302 304 303 304 304 302 302 302 302 300 303 303 302 302 300 302 304 307 306 306 307 309 310 309 309 307
319 319 320 320 320 320 321 321 321 321 322 321 322 322 322 322 322 323 323 322 322 323 323 323 324 324 324 325 322 318 313 302 304 309 326 335 333 339 337 334 327 314 312 308 310 309 310 309 307 306 305 303 304 305 304 307 308 305 302 304 305 301 300 304 305 303 302 300 299 300 299 302 302 300 300 302 299 301 305 308 309 309 309 308 309 309 309 307
320 319 319 319 319 320 320 321 321 321 322 322 322 322 322 322 323 322 323 323 322 323 323 323 323 324 324 324 325 314 308 294 310 315 328 337 338 339 335 331 322 311 310 310 309 308 308 306 307 304 303 302 302 300 303 306 306 299 303 304 305 306 302 305 304 301 300 301 300 300 303 302 301 302 304 302 302 305 309 309 309 310 310 310 308 307 306 307
320 320 319 319 320 320 320 321 321 321 322 322 322 322 322 323 322 323 322 322 322 323 322 323 323 323 324 321 319 309 307 307 310 318 332 338 339 337 332 327 320 311 311 308 308 307 307 305 305 304 303 301 302 301 303 303 304 302 299 303 302 305 304 306 304 299 300 300 302 303 304 301 302 300 304 302 304 306 308 309 309 310 310 307 306 306 306 307
321 320 320 319 319 319 320 320 321 321 321 322 322 322 322 322 322 322 322 322 322 322 323 322 323 323 323 316 313 306 305 305 311 322 334 337 336 330 320 313 311 312 310 309 308 307 306 304 303 303 302 300 302 301 302 301 302 301 300 303 303 301 303 304 304 303 302 302 304 302 301 302 304 303 304 302 305 306 307 308 308 308 308 307 305 305 306 306
321 320 320 320 320 320 320 320 320 321 321 321 322 322 322 322 322 322 322 322 322 322 322 323 322 323 320 312 308 303 303 319 310 313 335 333 326 314 314 311 311 310 310 309 309 309 307 305 305 304 300 301 302 300 299 299 298 302 302 303 303 302 303 304 301 301 301 302 302 300 300 303 304 303 299 302 304 306 308 307 307 307 306 305 305 305 305 306
320 320 320 320 320 320 320 320 320 320 321 321 321 322 322 322 322 321 321 322 322 322 322 322 322 321 311 311 308 299 309 308 319 327 327 322 313 312 312 315 311 310 308 307 306 308 306 307 305 306 305 302 301 300 300 299 298 300 301 301 301 302 302 302 300 301 302 301 301 299 300 301 303 300 298 305 306 306 306 306 306 305 304 305 305 305 306 305
320 320 321 320 320 320 320 320 320 321 321 321 322 322 321 321 321 321 321 321 322 321 322 321 322 316 310 309 303 300 311 316 322 323 318 315 313 312 313 311 312 310 310 306 308 309 309 309 307 305 303 301 299 299 298 299 300 299 298 299 299 301 301 300 299 299 300 298 300 300 299 301 302 299 298 303 304 304 303 304 305 305 305 306 306 305 306 305
320 321 321 320 319 319 319 320 320 320 320 321 321 321 321 321 321 320 321 321 321 322 321 322 320 317 306 306 303 305 310 315 320 318 316 316 314 310 308 311 310 314 311 307 308 312 309 309 308 304 300 302 298 297 298 300 299 298 297 295 298 299 298 301 299 300 299 297 298 300 297 296 298 296 302 304 305 303 303 303 304 304 305 306 307 306 305 306
320 320 320 320 319 319 319 320 320 320 320 321 321 321 321 320 320 320 320 320 321 321 321 321 318 317 308 303 308 310 310 320 316 311 311 312 309 309 309 310 309 307 310 310 309 311 307 308 307 303 302 301 299 296 298 300 298 297 298 296 295 297 297 301 302 297 296 298 298 299 290 296 299 302 304 306 303 302 301 302 303 304 305 305 305 305 305 306
321 320 319 319 319 319 319 320 320 320 320 321 321 321 321 320 320 320 320 320 321 321 321 320 320 313 307 306 305 305 311 316 313 313 310 310 311 310 309 309 308 306 308 306 307 305 305 305 307 304 302 300 298 301 299 298 297 295 296 295 294 293 293 300 298 296 296 297 298 299 291 295 299 302 305 305 302 301 301 302 303 304 304 304 305 305 305 306
321 320 319 319 320 320 320 320 320 320 321 321 321 321 320 320 319 319 320 320 319 320 318 318 317 309 303 307 305 308 315 311 311 314 312 309 309 307 307 308 307 307 306 308 307 303 306 307 305 301 300 300 301 298 296 296 297 297 293 292 295 291 295 299 300 297 295 295 297 297 292 294 299 301 304 303 300 299 299 301 302 303 303 303 304 304 304 305
321 320 320 320 320 320 320 320 320 321 321 321 321 320 320 320 319 319 320 319 320 320 319 315 311 305 304 301 308 317 308 308 307 309 310 311 312 307 309 306 306 306 306 304 304 304 305 306 301 300 300 299 297 296 294 294 296 295 292 292 293 295 295 295 299 299 298 297 295 296 293 296 297 302 303 303 299 299 299 300 301 302 302 303 303 304 304 304
320 321 320 320 320 321 320 320 320 320 321 321 321 320 319 318 318 318 319 318 316 319 318 308 308 308 299 308 307 303 305 308 305 310 308 308 308 307 307 306 304 304 305 304 305 306 304 302 300 300 300 298 299 297 292 292 292 294 295 292 295 293 294 292 298 300 297 297 294 295 293 295 297 300 302 303 302 301 300 300 301 302 302 303 304 304 304 304
321 321 320 320 320 321 320 320 320 321 321 321 319 317 315 317 317 317 317 316 314 314 312 313 311 304 301 305 301 304 305 303 308 305 306 305 307 308 306 303 302 305 304 303 304 301 301 300 299 298 299 297 295 295 291 288 293 294 295 293 293 293 292 292 293 296 295 295 293 294 293 294 296 298 300 301 302 301 300 300 301 301 302 303 303 304 304 304
321 321 321 321 321 321 321 320 321 322 321 321 316 314 316 315 315 316 309 309 306 303 301 303 301 297 298 302 305 302 305 306 306 306 305 306 305 305 304 305 305 303 300 299 299 300 300 300 300 297 294 295 294 295 294 295 297 295 294 293 293 291 292 292 296 298 295 294 293 293 292 295 297 298 299 301 302 301 300 301 301 301 302 302 303 304 304 305
321 321 321 321 321 321 321 321 322 321 321 318 313 311 312 310 309 304 307 308 304 307 306 306 305 304 303 305 304 305 307 305 305 304 305 305 305 304 302 303 302 302 299 298 298 299 301 295 293 293 296 298 299 297 298 298 296 294 294 293 292 292 293 296 296 298 296 293 293 294 295 295 296 297 298 300 301 300 300 300 301 301 302 302 303 304 305 305
320 321 321 321 321 321 321 322 322 321 320 316 310 309 308 302 303 304 302 306 310 308 305 306 306 306 307 307 305 304 304 302 304 305 305 307 305 305 300 301 299 297 298 298 299 297 297 294 294 297 299 300 299 298 297 296 295 294 293 293 292 293 291 295 296 298 296 292 292 294 293 294 295 297 298 300 299 298 300 300 301 301 302 303 303 304 305 305
320 320 321 320 320 321 321 322 321 320 316 313 311 304 302 302 304 306 304 303 307 308 306 306 305 303 307 306 305 304 306 303 302 303 306 305 302 301 300 300 297 297 297 296 296 294 293 291 296 299 300 296 295 294 294 294 294 294 292 293 292 292 295 296 296 297 295 292 292 294 292 293 295 297 298 299 299 300 301 301 301 301 302 303 304 304 304 304
320 320 321 320 320 321 321 321 321 315 315 313 309 306 304 307 308 308 305 302 299 305 302 304 301 302 303 305 305 306 301 300 301 302 303 304 300 300 299 297 296 296 295 297 294 294 291 294 297 300 299 295 295 293 293 293 293 292 293 291 289 294 291 290 294 292 293 292 292 293 291 292 295 298 298 300 300 300 301 302 302 303 302 303 303 302 302 303
319 320 320 320 320 321 321 321 319 318 312 307 309 306 307 309 309 307 304 300 300 304 303 304 303 303 302 303 306 305 301 302 301 301 306 304 301 301 299 299 296 295 295 296 296 295 295 296 298 298 296 295 293 294 292 292 292 295 293 293 292 293 294 292 293 294 295 295 294 293 292 295 298 297 298 299 298 298 300 301 301 303 304 304 305 305 306 303
319 319 319 319 319 320 320 319 315 312 307 307 308 309 307 309 309 309 303 300 298 299 303 300 302 304 304 308 306 302 302 301 302 302 305 304 299 298 299 299 298 294 296 297 296 295 296 297 296 295 294 294 293 292 293 294 291 294 296 294 294 295 293 294 295 293 290 291 293 292 288 290 295 296 297 299 298 299 301 301 302 302 303 303 302 304 306 306
319 319 319 319 320 320 321 316 312 310 310 310 309 308 306 307 308 306 302 296 293 302 301 298 304 298 306 300 303 301 302 299 298 300 301 303 305 301 297 296 297 295 296 295 294 295 295 295 296 295 294 293 293 293 295 295 292 291 293 296 295 294 294 293 292 291 287 287 292 294 286 285 294 294 296 298 298 299 301 303 302 302 302 303 304 304 304 303
318 318 319 319 320 321 317 314 312 311 313 311 309 305 306 308 308 305 297 294 291 301 299 299 299 299 304 298 300 301 294 296 299 301 301 303 301 303 297 296 295 293 294 296 293 292 293 292 292 294 294 293 292 290 294 294 292 290 294 294 295 294 292 293 292 291 289 293 293 291 291 286 287 294 297 298 297 298 299 301 302 303 302 302 303 303 303 302
315 317 318 319 320 320 319 314 314 314 316 314 309 307 306 305 305 303 298 285 286 303 296 297 299 305 302 298 300 296 294 293 294 297 298 300 300 299 297 296 295 295 293 294 288 296 293 292 293 292 292 292 292 295 297 296 293 292 291 292 293 293 293 291 291 290 290 287 286 288 293 287 288 292 293 296 294 296 298 299 301 302 302 302 303 304 302 300
313 315 316 318 320 321 319 317 315 313 315 308 308 308 307 305 301 301 293 283 299 297 305 295 304 299 298 299 298 294 295 294 293 295 300 299 300 298 295 297 295 295 294 295 292 295 293 294 295 296 294 292 296 293 296 296 293 293 292 293 292 292 292 291 291 290 289 287 284 287 291 286 287 295 293 293 294 296 298 299 299 300 301 302 302 302 301 300
313 314 315 318 319 317 315 316 315 314 309 309 307 307 305 303 303 295 288 281 300 293 299 299 297 294 296 296 295 295 295 294 294 297 299 298 299 299 294 295 295 294 295 293 294 296 293 293 294 295 294 297 295 291 292 296 294 293 296 294 293 293 291 290 290 289 287 283 286 289 291 290 285 293 293 292 295 296 299 298 299 301 303 303 304 301 300 300
312 313 314 316 317 318 316 312 316 310 310 309 308 307 308 308 298 290 281 291 298 298 296 296 294 296 295 294 294 293 294 293 295 296 295 297 296 297 296 294 297 295 292 293 292 295 293 293 293 295 296 293 296 293 291 291 292 294 292 291 291 290 289 288 287 288 283 282 288 290 291 291 283 290 294 297 295 294 297 296 298 300 301 302 302 299 299 300
311 312 312 316 318 319 315 314 314 308 307 308 311 312 310 295 300 285 285 302 290 297 295 294 292 294 292 293 294 293 294 293 293 294 294 294 294 293 294 293 294 289 289 290 291 293 290 292 295 295 295 295 294 293 292 292 292 292 291 290 285 285 286 282 284 281 282 283 286 287 291 287 286 293 294 296 297 297 296 297 298 299 299 301 299 298 299 298
309 310 311 314 314 315 318 314 310 309 309 311 314 313 300 290 281 292 292 295 291 298 295 295 293 293 294 293 294 293 292 294 294 293 294 293 292 296 297 295 297 293 288 291 288 290 293 290 291 294 294 295 296 290 290 288 290 290 289 287 284 281 281 278 283 282 283 286 286 287 290 285 291 294 297 297 299 299 298 298 300 298 298 298 296 298 297 296
308 309 311 313 315 317 315 311 311 311 313 312 311 304 297 285 284 296 295 295 296 295 295 294 291 291 292 295 297 294 294 296 293 293 293 292 291 292 294 294 292 293 292 290 287 289 286 289 292 291 292 297 294 295 295 294 291 290 294 291 288 287 283 279 282 280 283 286 283 286 284 283 285 291 295 297 297 298 298 297 298 300 298 296 296 296 295 294
307 309 311 313 313 315 315 312 311 314 314 310 305 297 287 286 291 290 294 297 298 295 296 293 294 293 294 292 291 292 295 296 292 292 291 292 291 291 293 294 293 295 293 288 292 287 289 290 294 293 291 292 293 295 296 293 291 292 292 293 287 286 291 283 286 284 283 284 283 282 284 290 291 297 296 297 297 297 296 298 297 296 295 294 293 292 291 291
305 306 308 307 310 314 315 313 312 314 311 306 298 290 287 291 289 297 294 300 297 297 295 294 295 292 293 294 293 292 296 294 292 291 292 292 294 292 295 294 293 294 292 289 294 289 290 288 291 293 291 292 293 294 293 294 286 289 289 285 289 294 290 286 286 286 284 283 280 289 286 290 295 295 298 296 296 295 296 296 294 292 292 291 289 289 289 290
300 303 302 307 308 315 315 314 313 312 310 303 296 288 295 297 299 298 301 296 296 297 296 290 292 293 292 291 293 291 293 294 293 292 291 293 291 294 292 294 295 295 297 297 294 297 288 290 290 292 290 291 290 291 294 294 295 290 285 290 291 292 291 286 280 283 281 278 281 287 284 287 288 284 296 296 297 295 294 291 291 290 290 288 288 287 288 288
299 300 301 302 310 315 315 314 313 310 306 300 292 293 300 295 303 300 298 295 295 297 295 292 293 297 291 292 292 291 293 292 293 291 291 294 291 298 293 294 293 293 294 296 293 292 293 285 292 289 292 292 290 292 293 293 294 291 289 294 287 282 282 285 281 274 276 276 279 283 285 286 288 288 294 294 293 291 290 289 288 287 287 287 287 287 288 288
299 300 296 303 309 315 314 314 311 306 301 294 292 291 298 298 302 300 297 299 297 297 293 295 293 297 296 292 293 290 292 289 293 291 290 294 289 297 292 295 294 292 294 294 291 293 294 285 288 291 292 294 295 293 286 290 293 291 292 289 293 287 285 283 284 282 283 277 279 279 284 281 291 292 294 294 290 290 288 287 286 286 286 286 286 287 287 287
297 296 295 304 310 314 314 312 306 303 298 291 294 294 300 295 300 297 296 297 298 296 295 295 296 293 295 294 295 293 294 292 292 292 290 293 293 300 294 299 294 294 295 296 293 296 290 293 282 291 289 294 288 292 289 291 287 287 287 285 287 286 288 288 286 283 281 279 279 278 277 284 291 295 295 292 288 288 288 287 287 286 286 286 286 286 286 286
299 296 296 309 311 314 312 307 300 295 294 297 298 297 298 296 298 298 298 298 300 300 296 297 296 293 295 294 293 295 293 293 292 291 293 294 293 289 298 297 299 296 294 291 294 291 288 287 284 289 288 289 291 297 296 295 295 291 290 287 289 286 283 280 278 288 284 282 277 278 276 284 292 298 293 288 289 288 289 289 288 287 286 287 287 286 286 286
295 288 293 306 308 312 306 296 297 298 295 293 293 297 296 302 298 299 299 298 298 298 299 297 296 295 295 294 295 294 294 292 293 292 293 291 296 294 297 294 298 299 295 292 294 297 295 292 289 286 288 289 294 297 299 298 297 295 293 290 293 291 290 284 277 281 286 285 286 283 280 281 293 291 289 289 288 288 287 288 287 286 286 286 287 287 287 287
294 291 300 303 306 309 302 294 298 296 294 297 301 298 299 297 296 296 296 296 296 298 296 296 296 295 296 295 295 294 295 290 292 291 293 294 295 296 293 292 295 296 295 293 296 294 293 287 286 287 291 294 295 297 295 294 295 293 293 294 292 288 290 287 286 286 283 283 282 281 278 281 286 289 289 288 287 286 286 286 286 285 285 285 285 286 286 286
291 291 296 303 304 304 298 287 288 291 294 297 297 297 300 298 296 295 295 296 296 295 294 294 294 296 294 297 294 292 295 286 293 293 291 294 292 291 291 292 293 294 293 293 291 293 286 287 287 281 281 284 287 290 289 291 292 289 289 291 291 291 290 289 287 286 280 282 283 280 275 283 290 291 291 289 287 286 285 285 285 285 285 284 285 285 286 286
290 293 292 294 301 302 292 296 293 292 292 292 293 292 293 295 298 297 297 295 297 297 294 292 295 295 294 293 292 292 293 292 287 293 292 292 293 291 290 290 292 290 290 291 290 293 288 288 287 279 276 274 274 276 279 283 286 288 289 289 290 288 287 285 282 284 278 283 284 280 280 287 293 293 293 294 291 288 284 284 284 285 283 283 284 284 284 285
288 281 289 293 297 297 295 296 295 294 292 292 290 292 294 292 295 296 299 296 298 296 296 296 293 293 290 290 289 290 290 294 289 287 289 290 290 290 287 289 289 291 291 290 289 291 286 287 287 285 282 280 282 285 289 288 286 283 285 287 286 288 288 286 284 280 277 281 279 281 282 283 285 288 289 291 285 286 284 283 282 283 283 284 284 284 285 284
289 286 287 284 295 292 291 294 291 293 289 294 287 293 290 291 293 293 299 292 296 296 295 295 293 291 290 291 289 289 291 290 292 290 289 290 292 290 288 289 289 288 289 289 289 286 284 283 285 286 285 285 287 286 288 286 283 284 283 283 286 285 285 283 280 277 284 279 274 283 284 282 283 287 288 288 283 282 282 282 281 283 284 285 284 285 285 285
283 287 288 288 286 284 287 288 291 289 290 290 287 291 288 290 291 289 293 295 294 294 291 292 293 293 292 290 290 285 288 288 288 286 289 287 287 289 289 288 286 286 287 288 290 287 284 282 286 286 284 287 288 287 287 285 285 284 284 283 283 285 284 281 281 284 283 278 275 282 284 282 284 286 288 286 282 281 281 282 283 284 284 284 285 284 285 284
288 287 286 290 285 285 287 287 286 287 288 289 287 289 288 289 288 291 291 290 291 289 294 285 288 289 289 289 287 284 286 283 283 285 282 283 281 284 284 286 286 286 286 285 287 287 284 280 284 282 281 281 283 284 285 284 283 283 283 283 284 283 283 283 283 284 284 282 283 283 283 283 285 286 286 282 283 283 284 284 284 283 283 284 284 284 284 284
284 285 283 287 284 284 284 284 285 285 285 288 285 287 288 288 287 289 290 289 285 288 293 288 287 284 284 283 286 285 285 286 285 283 285 282 282 285 282 284 284 285 285 283 284 284 285 277 284 278 278 278 281 283 282 282 281 279 281 282 282 282 282 283 283 283 283 282 283 282 282 281 285 282 283 283 283 284 283 282 283 283 284 283 283 284 284 284
289 290 290 284 282 283 281 282 283 284 283 284 284 286 287 287 287 289 287 288 287 286 288 286 285 284 285 283 285 285 285 283 284 282 283 283 281 285 282 282 285 280 282 281 284 282 283 277 282 279 275 274 279 280 280 280 279 277 277 279 279 279 278 280 280 283 281 279 281 281 279 279 283 282 283 284 282 282 280 281 282 282 283 283 283 283 284 285
290 291 290 287 280 285 280 283 281 283 279 284 285 285 285 285 284 287 284 286 284 287 286 285 285 285 284 285 283 285 286 285 284 284 286 285 285 284 284 284 284 281 281 281 283 280 281 279 276 276 273 272 278 279 276 275 274 272 273 277 279 280 281 281 282 283 283 283 278 276 277 283 282 283 279 280 281 281 281 281 281 282 283 283 283 283 284 285
Wind_Speed
10 11 10 10 11 12 11 11 11 11 11 11 11 11 12 11 11 11 11 11 10 11 11 11 11 11 11 10 9 8 7 3 3 3 4 6 2 7 7 5 13 13 10 8 9 9 5 4 6 1 3 4 2 2 1 0 1 3 4 4 7 7 6 4 8 7 3 5 7 3 5 5 9 3 2 1 7 10 12 11 8 9 11 12 3 3 4 4
9 9 9 9 10 11 11 11 11 11 11 11 12 12 12 11 11 11 11 11 11 10 11 11 11 11 11 10 9 8 6 2 5 4 13 6 5 7 5 9 13 13 10 9 11 8 8 6 4 4 5 3 1 0 1 2 1 5 2 4 9 4 3 4 5 6 4 8 8 5 3 3 8 3 2 6 9 8 13 15 10 12 15 15 12 6 4 6
8 8 9 9 9 10 10 10 10 11 11 11 11 11 11 11 11 11 11 11 11 11 11 11 12 11 10 10 8 4 4 3 3 7 3 7 8 7 7 11 15 13 11 7 6 8 5 6 8 7 2 2 1 2 2 2 4 4 5 8 10 8 3 4 4 7 9 10 11 11 3 3 2 2 1 7 12 9 14 14 9 11 14 13 13 10 9 7
8 8 8 8 9 9 9 10 10 10 10 10 11 11 11 11 11 11 11 11 11 11 11 12 12 12 10 10 8 1 3 4 6 1 2 3 5 7 9 13 14 9 3 4 4 4 4 8 6 5 3 5 2 1 4 4 4 3 5 9 7 2 6 8 10 10 8 3 9 7 6 8 6 5 5 5 7 12 16 17 16 18 17 14 6 8 6 8
7 7 8 8 8 9 9 9 9 10 10 10 10 11 11 11 11 11 11 11 11 11 11 11 12 12 11 10 7 2 3 8 3 2 4 5 7 8 10 12 10 5 2 8 8 5 6 8 7 2 2 4 3 2 7 5 2 3 10 10 11 3 6 7 6 2 4 1 5 6 8 11 3 4 9 10 11 12 12 12 9 12 14 14 14 5 5 7
6 7 8 8 8 9 8 9 9 10 10 10 10 11 11 11 11 11 11 11 10 10 10 10 11 12 10 9 3 2 2 5 1 0 5 6 7 8 11 10 7 7 10 8 6 7 8 4 7 4 4 4 6 8 3 5 6 9 10 12 12 9 10 1 3 2 4 4 4 7 6 6 8 12 11 12 16 18 17 18 19 18 16 11 6 4 6 8
6 6 7 8 8 9 9 9 10 10 11 11 12 12 13 12 12 12 12 11 11 10 10 10 10 11 12 5 3 3 5 8 3 2 7 7 8 10 10 8 8 9 9 7 7 8 5 6 7 4 3 3 7 7 4 5 3 8 11 2 8 7 13 10 8 5 4 3 9 5 10 14 12 16 3 12 16 20 22 21 21 20 16 3 10 11 13 12
5 4 4 6 8 9 9 9 10 11 11 12 12 13 13 13 13 12 12 12 12 11 10 10 9 10 10 2 3 2 4 8 3 3 4 8 9 11 11 5 7 7 10 11 11 7 7 8 9 3 6 8 1 7 3 4 7 9 12 9 10 3 11 10 7 6 7 9 8 7 12 20 16 15 9 14 15 18 22 21 19 18 16 10 11 15 14 13
4 5 5 5 5 7 8 10 10 11 11 12 13 13 14 13 14 14 13 13 12 11 9 8 9 8 4 3 2 6 8 5 2 2 8 8 8 8 11 9 6 12 6 2 3 6 8 7 4 9 6 7 3 8 4 5 9 12 16 9 7 8 10 8 5 7 9 5 5 6 17 19 17 9 19 21 20 21 19 19 18 15 13 12 12 14 13 13
7 7 5 6 6 8 10 10 11 11 12 13 14 14 14 15 14 15 15 13 13 11 9 7 7 7 2 2 2 8 2 4 2 4 3 7 8 8 4 2 11 9 7 5 3 7 11 6 10 5 2 5 4 6 3 9 2 1 3 7 12 13 12 6 10 11 8 8 7 12 17 18 5 3 15 4 10 9 10 13 13 9 12 11 10 10 10 12
7 8 7 7 8 9 11 12 12 12 13 14 14 15 15 15 16 16 16 15 13 12 9 6 3 1 2 3 6 12 3 1 2 3 5 6 10 10 9 5 8 9 6 3 8 11 3 3 5 5 1 4 4 4 5 3 4 3 4 10 14 14 13 9 10 15 5 9 12 13 17 18 10 3 19 15 4 3 6 14 13 12 12 13 12 10 9 10
8 8 9 10 10 11 11 12 13 13 14 14 15 15 16 16 17 17 16 14 13 9 8 5 1 1 1 4 9 10 3 3 4 3 5 6 5 3 4 2 6 6 9 8 8 3 0 3 8 8 4 6 5 2 4 2 3 1 4 9 12 12 15 15 12 13 11 7 7 8 9 14 11 12 21 17 7 5 10 15 15 13 12 12 12 10 9 11
7 9 10 10 11 11 12 13 13 14 14 15 15 15 16 17 18 17 15 12 7 5 2 5 4 2 1 8 9 3 2 4 5 6 5 4 6 4 3 2 0 2 3 3 3 4 3 5 7 10 2 4 0 4 3 2 1 2 4 5 14 12 12 13 7 3 5 3 9 9 7 6 12 18 18 12 3 3 8 12 13 11 10 9 10 9 10 11
5 7 9 11 11 11 12 14 14 14 16 16 16 16 17 17 17 14 11 9 6 4 4 6 3 3 3 9 2 1 2 2 6 5 4 1 5 3 4 4 3 2 2 1 3 1 5 0 2 1 2 5 4 4 4 1 3 7 1 1 9 9 10 3 4 6 5 5 12 8 10 11 14 17 16 2 2 6 11 13 13 12 11 11 10 9 12 14
4 4 7 9 8 8 8 11 15 16 17 17 18 18 19 18 12 9 7 3 1 6 8 6 3 3 4 6 6 1 3 0 4 3 6 6 6 4 2 3 5 5 4 5 2 2 3 6 4 4 4 3 1 5 6 3 3 4 5 7 4 7 8 11 3 9 11 3 7 8 10 12 15 15 12 3 2 2 9 13 15 14 15 16 14 14 15 16
3 4 6 7 8 9 9 11 12 14 18 19 19 19 14 10 4 5 3 4 3 8 4 2 3 2 4 8 2 6 2 4 2 3 1 3 8 3 6 6 4 4 1 5 1 3 2 4 4 1 1 3 6 5 4 5 7 4 8 11 12 8 10 9 10 1 4 6 6 13 11 8 12 9 10 5 2 6 10 15 17 19 20 18 15 13 12 14
4 6 7 8 10 10 11 12 12 14 17 17 19 15 9 1 1 5 5 5 5 3 2 1 3 1 4 1 5 3 3 2 2 2 2 1 1 8 10 6 4 6 8 6 3 4 3 4 1 1 1 6 1 3 4 6 9 9 6 10 8 11 10 10 7 6 5 7 7 11 10 14 17 19 20 17 15 16 18 21 22 21 18 18 14 12 13 14
4 6 7 9 11 10 11 12 13 15 18 18 18 11 5 1 1 1 4 4 1 0 1 1 2 1 8 4 7 2 3 2 2 3 2 1 2 8 4 4 3 8 8 7 1 5 1 3 1 5 3 6 4 6 6 10 10 7 5 7 8 8 12 15 12 2 1 7 6 7 15 17 18 20 21 20 18 16 20 18 19 21 20 18 15 14 16 15
6 7 6 9 10 9 10 12 14 16 18 21 11 2 5 5 1 2 0 0 2 1 2 4 3 5 3 3 3 1 2 3 3 2 4 7 2 3 5 4 8 11 6 6 4 5 2 2 2 4 10 11 11 13 13 15 13 11 9 11 11 14 11 9 13 8 4 11 10 12 16 15 15 17 18 18 15 15 19 20 17 19 18 16 15 14 14 11
8 8 8 8 7 8 10 11 13 16 19 13 3 1 3 1 1 2 1 2 3 7 8 5 6 6 11 11 4 3 2 1 3 2 3 1 8 8 5 4 3 1 7 7 6 7 3 9 9 10 13 14 13 16 18 14 5 6 6 9 14 14 14 16 17 15 3 8 12 16 18 18 17 16 18 20 19 19 20 21 19 17 16 15 15 15 10 10
9 8 8 7 6 7 9 11 11 14 16 6 4 1 3 1 4 5 6 10 11 6 8 12 15 14 14 1 2 3 2 2 2 3 3 2 2 11 5 6 8 6 6 2 5 3 2 10 11 15 15 10 6 3 7 12 10 13 13 13 14 9 16 15 15 10 1 6 10 10 17 18 17 18 19 21 22 23 22 18 17 20 19 17 16 10 5 7
8 8 8 7 6 6 8 9 11 14 9 3 3 5 3 2 2 1 1 8 3 9 9 15 2 9 10 6 3 1 2 4 3 4 3 4 5 7 6 8 8 9 5 4 2 4 7 11 11 15 11 4 2 1 3 9 12 13 11 12 11 11 15 15 16 10 1 2 10 9 16 15 19 21 23 21 21 17 14 12 17 19 20 16 6 6 9 9
8 9 8 6 6 7 7 8 9 7 4 3 3 2 2 2 1 0 1 4 10 3 6 11 8 12 13 2 1 4 7 12 9 6 7 6 5 4 7 7 8 2 5 9 10 6 8 8 14 13 5 4 6 2 3 6 8 9 10 8 11 8 8 9 6 2 4 1 12 14 20 15 19 21 20 19 15 15 14 15 17 18 18 9 7 10 12 13
9 9 8 7 5 6 7 7 5 0 4 2 3 3 2 1 2 2 2 4 7 6 5 3 4 4 6 5 1 10 11 5 1 6 4 7 7 4 5 10 6 5 10 13 14 12 11 4 2 7 6 8 13 8 6 9 14 10 13 10 12 14 12 10 10 6 11 12 6 12 13 11 7 5 2 2 4 7 11 12 17 12 6 7 6 6 5 7
8 8 7 6 4 3 5 6 0 1 1 1 2 1 2 1 1 1 3 4 3 7 3 1 1 3 1 3 2 6 4 2 6 4 3 6 8 5 3 2 3 10 11 10 11 11 12 3 4 4 6 10 9 8 10 11 14 10 8 12 17 15 15 15 14 9 7 8 3 8 13 4 4 4 5 3 2 3 5 12 9 2 1 1 4 5 3 2
7 7 7 6 3 4 3 2 0 1 2 1 1 2 2 2 1 1 2 3 6 2 0 2 2 2 2 2 3 2 6 5 3 1 1 2 4 2 4 4 2 5 7 5 8 5 6 2 6 11 7 5 7 9 12 10 13 10 6 11 13 13 13 11 12 6 7 4 3 6 4 13 5 8 6 7 5 10 14 16 9 6 6 4 4 5 6 7
3 5 6 5 5 3 1 1 1 2 1 0 3 3 2 3 2 3 3 3 5 2 2 3 1 1 2 2 1 2 4 2 1 3 2 2 4 0 6 4 2 1 1 3 1 6 5 3 2 2 6 6 6 8 11 12 8 10 3 1 4 7 8 8 5 6 10 5 6 6 8 10 15 3 6 5 6 10 16 10 6 6 5 5 5 3 6 6
7 6 3 4 6 7 2 3 2 1 2 2 4 3 3 3 2 2 2 7 4 2 1 2 1 1 0 1 2 2 3 2 1 2 1 2 1 2 4 6 7 5 5 4 10 2 6 4 6 5 6 6 10 13 5 12 8 1 2 2 1 3 4 0 3 6 4 7 8 5 5 5 10 2 3 5 5 12 12 7 6 4 5 5 4 7 8 7
9 7 6 2 6 6 1 1 3 3 2 4 3 4 3 5 2 3 2 5 1 2 1 2 1 1 2 2 2 1 1 1 2 2 2 0 3 2 5 5 3 1 1 7 11 2 1 1 7 8 6 9 7 3 5 9 10 2 5 6 4 4 4 1 3 5 5 5 11 8 10 5 18 4 6 1 3 9 4 7 4 3 3 3 5 10 8 2
7 7 7 1 5 3 0 2 4 0 4 5 4 5 5 1 2 2 3 7 3 1 3 2 3 2 1 4 2 2 3 2 1 1 3 1 1 1 3 2 2 2 7 5 8 7 3 1 2 3 10 4 4 3 1 6 3 5 4 1 1 1 1 1 1 3 4 9 10 14 15 7 12 4 9 9 3 2 1 4 1 3 8 7 5 11 4 3
7 7 6 3 3 2 4 2 3 4 5 4 5 4 1 2 3 3 10 2 4 2 2 1 2 1 4 3 2 3 1 2 2 1 3 1 2 0 1 2 0 2 1 4 9 8 5 4 3 4 2 3 2 4 3 3 2 1 0 2 4 5 3 3 0 3 4 11 3 12 14 13 9 3 3 3 2 2 4 1 10 11 10 9 8 10 8 11
8 6 5 3 1 1 4 2 2 5 4 5 3 1 1 4 3 11 5 4 4 2 2 1 1 1 2 3 1 1 2 1 1 3 4 3 3 6 8 6 4 2 4 5 3 5 4 9 2 1 1 6 4 5 3 3 3 4 3 2 4 4 3 3 3 3 7 9 2 3 5 7 19 10 1 4 5 2 2 5 8 9 10 10 13 12 14 13
8 6 3 3 3 3 2 1 4 4 6 3 2 1 1 2 11 6 2 4 4 2 2 3 2 2 2 2 3 1 2 2 4 2 2 1 2 8 3 5 1 3 10 2 4 5 4 4 4 5 1 6 8 7 4 4 7 8 7 5 3 5 5 7 5 1 5 3 3 2 3 10 12 8 11 16 12 5 2 2 6 7 10 16 15 14 13 13
9 6 0 2 4 4 1 4 5 7 6 2 3 3 2 7 9 6 5 8 5 2 2 2 2 2 2 6 1 5 4 4 5 4 4 3 3 4 5 7 5 3 2 2 5 2 9 8 5 9 4 7 12 10 3 1 9 10 5 8 5 6 4 7 3 9 9 5 4 2 3 4 2 2 5 6 8 7 4 4 3 3 11 12 12 12 13 13
9 4 2 2 3 5 5 4 6 7 4 5 3 7 9 14 1 6 5 4 3 2 1 2 2 2 5 2 1 4 5 4 2 4 4 5 5 4 4 5 6 5 1 4 4 0 9 12 2 3 2 1 9 1 3 5 2 3 2 2 1 7 4 10 2 3 4 4 2 3 6 2 6 4 4 2 2 3 4 6 9 15 14 13 12 13 12 13
4 0 1 2 4 4 8 5 5 6 6 6 6 8 16 8 2 4 4 2 1 5 1 2 4 5 6 4 1 2 2 5 1 3 3 6 2 3 1 2 6 16 8 7 2 7 2 8 4 1 1 1 2 3 1 3 6 5 5 6 5 4 3 6 5 5 0 4 11 4 7 10 9 13 9 7 9 8 6 11 14 14 13 13 13 12 13 12
2 2 3 4 4 6 9 9 7 7 6 8 9 14 10 6 10 1 2 5 1 3 3 8 5 7 3 3 3 2 3 1 3 3 6 3 5 10 4 5 1 8 10 2 5 5 10 11 4 4 5 1 2 3 0 1 0 7 4 3 5 2 4 2 5 1 2 8 8 7 16 14 8 10 10 4 8 10 13 12 12 13 14 14 11 11 11 11
3 2 3 4 5 8 11 9 10 7 6 9 15 15 4 8 3 13 4 4 0 1 2 5 6 3 4 4 6 5 5 6 3 5 4 7 6 8 2 1 2 1 5 3 6 2 2 9 3 1 3 2 0 3 2 1 5 3 1 3 2 2 3 2 2 4 7 10 6 8 15 14 10 12 9 11 13 12 10 10 12 13 12 11 10 10 9 10
2 1 3 3 0 10 9 10 8 9 8 10 12 14 8 10 3 3 3 2 1 3 6 7 9 1 2 6 3 2 6 6 4 4 3 4 9 2 1 2 1 1 3 3 3 0 2 6 2 2 4 1 1 3 4 5 1 2 1 2 2 1 4 4 2 1 2 7 8 4 10 7 4 9 10 16 11 8 9 9 9 9 9 7 7 7 7 8
3 2 3 1 2 8 11 11 7 9 9 17 13 12 4 2 3 1 1 3 3 5 4 4 6 9 5 6 3 7 2 0 1 4 5 2 5 3 2 1 3 3 2 7 1 2 2 2 6 3 3 6 5 5 5 5 5 2 1 1 1 0 2 2 3 3 4 7 7 7 8 5 4 7 14 7 10 10 8 7 5 5 6 6 6 6 6 6
1 1 1 3 2 9 10 8 9 12 11 7 8 8 9 8 2 2 2 1 2 3 1 1 1 6 1 3 6 4 2 4 4 6 4 3 4 7 5 3 4 0 4 6 2 1 0 1 7 7 7 9 10 8 8 8 5 6 6 9 10 7 4 7 11 5 7 8 6 8 12 5 7 6 4 10 6 9 8 7 6 4 4 5 5 5 4 4
3 3 1 2 4 10 10 13 7 3 3 11 12 8 8 2 7 7 2 3 0 2 2 2 2 6 6 9 11 7 4 6 7 7 4 10 5 6 1 5 3 1 2 3 1 4 3 2 6 12 12 15 12 4 1 6 9 12 11 11 9 10 9 11 15 10 5 9 7 8 10 8 0 7 10 7 8 6 6 5 5 4 5 5 6 5 5 5
2 0 2 3 5 8 8 9 7 8 7 3 5 1 2 4 2 1 2 1 3 2 0 4 6 8 8 10 7 9 8 8 6 10 6 5 10 4 5 6 3 2 2 4 1 1 3 2 5 11 11 11 12 8 3 2 7 8 7 7 7 12 12 14 13 5 7 7 10 9 9 1 2 4 9 9 8 7 4 4 5 5 4 5 6 8 8 7
1 2 2 1 4 2 9 10 10 13 11 8 7 10 2 4 2 5 4 3 4 2 3 3 1 8 6 2 2 9 4 6 6 12 8 2 3 4 6 8 7 0 2 2 3 1 2 3 6 5 4 5 8 5 4 3 3 3 1 1 1 3 3 4 3 2 8 7 9 7 10 3 3 7 8 9 8 7 5 5 4 5 4 4 4 3 3 3
0 2 3 4 2 1 7 3 6 8 11 13 12 14 13 9 5 10 8 6 2 5 1 3 6 1 3 2 2 1 1 9 4 2 2 2 1 1 4 6 5 3 3 2 3 4 4 3 5 11 12 14 12 9 8 1 2 1 3 3 3 1 6 5 8 6 10 3 13 10 7 7 4 11 19 11 4 5 7 4 4 4 4 2 2 1 0 0
2 1 1 1 1 1 1 1 2 4 8 10 11 11 11 11 4 3 7 10 10 5 7 8 1 1 3 2 5 6 8 5 7 3 1 2 1 1 1 3 4 1 3 3 3 2 1 3 5 10 11 13 13 9 4 2 3 5 4 6 8 10 8 6 6 8 10 7 12 9 14 13 15 17 19 11 5 6 4 3 2 1 1 1 1 1 2 1
2 2 2 3 0 2 2 2 2 1 4 1 7 2 14 15 10 2 7 5 2 7 2 6 5 7 5 9 10 12 12 13 10 9 10 12 3 2 2 3 3 7 5 2 2 2 1 4 8 11 11 10 12 14 12 2 7 5 8 12 12 12 9 10 10 10 5 11 15 6 16 16 13 16 14 13 1 0 1 1 1 2 2 3 3 4 4 4
1 1 2 3 1 4 5 7 2 4 2 1 2 3 2 3 7 9 2 1 3 1 5 2 6 12 11 9 3 6 3 6 5 5 2 1 1 2 1 3 3 5 3 1 1 2 2 10 10 13 13 14 15 11 6 6 6 8 9 9 13 13 12 15 14 14 12 14 16 11 14 17 16 18 14 2 3 1 1 1 1 3 4 4 5 5 6 6
1 1 1 4 2 2 1 2 3 2 6 4 3 2 7 10 10 4 2 1 1 1 5 6 2 2 0 3 2 3 2 3 3 3 2 1 2 0 2 2 2 1 5 2 2 0 2 5 5 4 6 4 8 9 9 9 8 10 11 12 13 16 19 18 17 16 18 19 19 19 22 24 21 14 0 4 3 2 1 1 3 5 6 6 6 7 7 7
1 1 1 3 3 2 2 2 1 2 6 5 5 9 5 6 14 8 1 2 5 3 2 6 6 3 1 2 2 8 8 7 5 12 2 4 3 3 2 4 1 1 2 3 3 5 1 5 5 1 6 7 7 11 10 10 10 12 12 14 14 18 20 17 19 20 19 18 19 20 21 21 6 7 5 4 2 0 2 5 5 6 6 7 8 9 9 8
0 2 1 2 1 2 3 0 1 2 4 4 8 7 6 9 12 3 5 5 3 10 3 5 3 1 1 3 2 5 2 2 1 2 2 1 3 2 2 2 6 3 4 1 0 2 2 3 5 4 7 7 9 9 9 9 12 13 15 18 21 21 19 15 16 13 14 17 18 18 15 13 2 4 4 2 0 2 4 6 7 6 6 7 9 10 10 9
2 1 1 1 0 2 4 2 2 3 6 3 3 4 2 2 2 3 2 2 6 6 4 5 3 3 2 3 5 3 4 5 5 1 1 3 3 5 3 5 7 4 2 1 1 3 2 4 3 5 10 8 13 11 5 4 9 12 14 20 20 20 20 20 17 17 19 19 16 14 13 2 6 4 4 0 4 4 6 7 7 8 8 7 9 10 11 10
Wind_Direction
35 34 30 28 26 23 21 19 16 15 13 12 9 7 7 4 360 357 357 352 350 350 343 340 343 341 339 342 339 342 330 283 174 210 211 245 75 128 162 111 144 142 159 133 135 147 139 152 156 95 166 212 24 214 47 142 358 201 223 243 252 259 233 206 229 202 24 283 295 193 207 237 273 161 178 248 232 239 266 257 235 243 249 242 241 88 89 136
37 34 30 26 23 22 18 15 15 11 8 8 6 3 0 358 357 352 352 350 347 344 343 338 338 341 340 338 344 340 317 238 252 232 239 105 148 153 147 140 138 154 161 155 166 177 153 171 161 183 169 192 354 66 287 162 252 220 215 225 265 242 255 181 232 239 227 270 287 300 152 258 279 352 310 279 273 258 276 265 233 238 241 242 235 184 178 161
36 34 31 25 22 18 15 13 11 9 7 4 4 0 357 354 352 350 347 347 344 341 339 338 336 334 338 338 340 350 294 259 245 247 266 111 141 157 146 142 154 168 175 175 182 184 202 190 159 169 170 220 70 170 240 156 210 218 238 247 244 240 232 223 228 236 227 282 284 287 296 225 256 303 72 256 281 281 269 276 261 239 256 244 231 203 200 193
35 32 28 26 19 16 12 10 9 5 3 2 357 355 354 351 349 349 344 343 341 338 336 335 333 332 331 336 343 325 262 270 260 88 105 163 143 159 157 153 157 166 105 65 142 119 93 112 136 211 151 233 114 246 216 177 224 132 214 239 262 270 251 236 221 239 254 285 275 279 288 283 259 232 214 258 280 263 260 258 259 272 281 288 260 188 178 210
29 28 25 18 18 14 9 6 4 3 356 353 354 348 349 345 343 341 342 337 339 335 333 331 329 326 330 327 341 214 300 290 358 303 105 162 173 164 155 154 152 162 150 125 109 108 146 145 147 85 218 228 154 187 239 164 267 141 232 248 259 116 255 256 231 223 250 337 270 271 284 284 59 228 218 232 251 267 272 287 275 270 279 281 285 266 170 212
21 21 20 14 10 11 5 357 359 356 350 346 345 344 341 339 340 335 335 335 329 333 329 327 327 325 322 327 261 202 286 305 63 285 154 157 158 155 156 138 144 136 131 143 144 150 139 147 171 186 204 231 204 222 133 196 157 247 233 239 252 255 263 257 242 171 189 228 228 270 283 320 258 271 247 219 237 256 264 274 279 280 282 280 293 266 231 220
8 14 12 8 7 5 360 355 350 350 345 342 340 339 337 337 332 336 329 330 326 325 329 323 325 327 325 301 211 263 237 278 220 169 137 153 151 149 135 125 140 145 156 126 149 157 190 149 212 212 210 245 249 236 192 187 197 243 267 125 263 244 246 253 256 111 222 238 262 275 307 280 273 275 239 224 237 251 264 268 271 276 279 268 276 264 255 246
356 355 1 358 1 360 357 352 349 344 342 339 337 336 335 331 332 328 330 322 322 320 323 318 324 326 337 246 249 205 181 242 242 29 136 133 135 132 127 125 156 156 177 183 167 178 170 181 203 112 234 242 131 204 152 211 186 232 250 252 267 253 257 267 268 247 250 248 262 286 280 270 270 271 288 252 251 254 258 265 267 271 274 269 261 266 262 256
346 354 352 347 353 340 351 351 345 343 337 335 335 332 331 329 326 326 320 319 315 314 310 321 314 334 314 277 238 281 239 227 35 173 151 129 132 128 146 150 193 173 183 150 215 162 179 212 209 184 264 222 163 241 158 232 246 204 243 261 266 260 269 264 263 237 235 247 191 256 257 267 275 319 270 258 251 251 253 264 268 270 272 269 259 256 257 257
353 352 350 352 351 352 351 347 343 338 334 332 330 330 326 326 323 322 317 314 309 306 299 303 327 316 338 180 170 262 298 68 78 131 128 125 130 145 201 129 172 172 161 177 144 164 205 193 204 193 328 272 158 232 112 202 262 82 288 276 276 279 287 271 256 270 231 239 179 226 262 267 268 63 282 151 226 234 253 260 267 269 272 266 250 250 249 251
348 354 353 356 357 350 347 343 338 333 331 328 328 327 326 322 321 317 315 310 307 296 289 276 341 340 216 182 243 262 96 148 97 112 132 138 139 162 186 167 176 177 178 129 202 201 210 127 105 105 189 241 142 211 203 227 347 332 326 292 273 273 264 241 242 253 208 254 194 228 257 268 266 167 256 261 125 160 273 272 268 262 266 272 267 253 247 243
346 350 355 353 349 348 341 338 334 329 327 326 325 324 323 320 318 315 311 308 299 289 268 269 126 216 306 239 241 247 19 61 131 128 130 157 131 40 20 190 192 187 175 178 219 225 344 153 157 174 261 109 240 56 224 269 282 335 316 288 285 287 287 269 237 260 177 227 161 200 245 269 244 231 248 255 252 236 252 268 272 266 263 268 271 267 253 243
343 354 354 350 347 342 340 334 329 325 323 323 323 321 320 319 315 313 309 306 299 288 244 159 115 245 211 267 247 39 357 105 116 111 93 70 103 74 46 24 38 4 317 247 206 184 171 161 179 214 71 220 96 280 101 209 133 273 217 277 294 288 276 286 207 83 163 178 161 156 269 243 250 245 250 249 159 190 247 257 262 266 264 260 263 263 262 257
341 0 352 349 344 339 337 336 329 324 323 322 322 321 318 316 315 312 313 301 293 245 218 203 189 183 208 256 106 355 107 112 118 140 129 178 149 54 84 63 73 47 339 61 52 77 133 351 212 46 61 239 259 107 187 56 180 276 53 175 267 297 273 264 156 137 212 141 169 198 261 269 270 272 279 236 189 235 263 267 268 267 266 264 258 257 266 266
352 8 344 340 332 319 316 331 329 324 323 324 322 322 318 316 318 321 327 345 175 156 115 114 204 189 203 269 96 56 171 182 189 182 158 161 147 126 104 122 68 43 52 52 87 88 126 129 118 213 223 69 300 271 271 301 277 263 279 254 205 229 262 276 273 176 245 141 208 184 254 261 271 276 290 99 133 261 269 273 275 274 271 268 265 264 266 270
337 326 301 299 309 325 327 319 319 317 325 322 323 320 313 320 343 349 45 50 86 150 153 190 158 276 315 274 133 129 184 212 190 51 142 317 190 192 120 113 117 89 110 50 67 121 65 166 195 290 338 161 222 234 270 302 260 202 233 268 268 254 273 302 272 8 206 125 213 201 265 295 273 275 265 272 180 199 263 278 281 279 275 273 267 261 259 268
306 291 299 307 312 312 325 321 321 323 323 324 324 322 328 307 61 45 49 46 42 109 234 110 135 230 255 80 121 244 213 128 102 138 111 35 348 132 131 119 129 101 95 106 114 140 56 184 40 211 207 255 271 173 269 253 265 251 209 258 249 265 291 274 303 263 139 194 210 221 251 248 268 285 286 284 285 287 282 281 282 280 279 278 278 271 265 264
276 293 302 304 299 308 311 322 326 323 323 325 326 326 335 321 212 217 122 77 46 67 267 229 239 302 239 103 259 233 54 165 139 112 62 12 198 152 132 134 109 130 130 111 59 186 292 183 258 230 195 210 188 208 212 244 238 256 233 254 261 227 227 265 288 133 345 167 261 236 237 256 266 275 278 281 285 280 277 278 276 279 279 279 280 276 275 271
273 272 291 283 295 305 308 317 322 323 324 323 322 295 56 70 74 240 26 129 226 188 184 158 192 199 284 191 351 101 150 85 111 194 139 136 107 92 81 76 142 142 162 186 151 182 163 138 176 211 232 220 209 207 216 233 245 274 293 286 287 284 276 260 257 275 291 291 282 261 268 276 275 275 280 285 286 281 279 280 275 273 274 279 278 275 274 285
254 263 262 278 303 303 308 313 317 321 326 326 11 313 204 231 207 165 182 234 227 267 301 280 241 304 321 280 243 44 90 159 188 38 120 280 146 146 79 143 79 320 151 206 139 203 152 193 188 202 223 226 224 210 225 245 335 325 278 265 269 275 276 268 272 277 110 295 256 267 275 280 280 279 282 286 283 272 269 269 274 275 280 280 275 273 293 304
252 259 273 291 303 302 305 311 313 320 323 310 279 245 32 342 325 327 335 274 263 275 255 251 227 234 244 66 83 182 215 185 26 122 131 136 278 156 162 149 171 195 201 35 140 80 209 220 216 223 233 244 262 263 253 266 273 269 271 271 272 256 273 262 278 287 159 255 275 266 276 276 276 274 272 271 270 266 261 276 279 281 278 276 276 305 336 324
255 261 265 271 283 291 300 302 318 323 314 272 5 69 116 38 357 313 293 295 259 231 228 244 36 265 263 280 76 318 22 316 184 108 127 216 159 221 157 196 168 218 112 134 122 171 207 223 225 229 240 46 22 350 228 248 260 255 255 265 273 264 268 272 261 276 339 214 280 263 276 280 279 272 267 258 259 267 280 272 271 273 276 272 324 345 336 316
244 251 255 253 261 281 291 309 320 343 337 7 53 87 86 114 178 331 302 264 267 224 228 242 229 237 261 78 198 81 249 230 252 158 171 187 122 260 143 185 200 152 157 188 210 200 241 226 234 238 234 254 255 214 247 260 246 250 257 244 253 275 279 298 170 134 176 230 297 303 294 284 263 257 258 268 266 272 267 258 255 252 259 309 318 323 300 298
238 244 247 251 265 285 310 309 303 71 34 358 66 68 78 100 127 169 213 268 313 282 223 245 267 253 253 271 167 199 211 249 164 228 162 185 176 144 185 198 183 176 214 201 218 230 235 83 248 240 214 223 246 234 232 255 263 224 230 254 273 262 255 249 290 328 307 281 246 291 270 266 244 232 205 37 326 252 264 256 248 260 292 287 291 260 253 286
237 239 242 251 259 284 280 294 30 34 240 220 96 147 158 139 224 165 295 272 196 256 112 225 169 241 205 56 291 198 198 197 220 27 171 228 142 151 216 61 206 227 222 205 227 246 252 157 116 139 200 218 230 245 225 237 262 265 213 222 244 262 279 277 286 325 298 289 100 336 329 300 165 159 112 156 193 247 251 254 257 213 193 23 293 300 270 283
242 240 239 239 233 250 274 283 102 148 283 55 89 146 151 138 141 214 275 298 284 178 329 204 190 88 336 102 25 305 130 215 10 2 14 321 341 278 105 202 187 270 199 177 233 257 270 100 191 223 187 178 210 240 241 202 256 270 260 206 245 258 267 276 284 324 286 289 63 359 326 298 178 241 251 250 255 283 271 252 256 276 282 292 300 318 10 22
357 252 239 235 205 224 272 249 93 205 305 129 142 155 145 142 171 193 277 231 283 124 130 17 233 107 224 25 356 170 206 109 71 104 159 12 207 70 241 196 117 118 345 125 341 232 186 203 121 83 167 187 209 240 233 195 238 259 50 202 204 246 248 263 274 242 270 335 266 186 215 274 299 217 208 237 228 239 252 274 302 293 303 302 305 14 50 38
22 22 325 227 196 203 196 122 151 283 268 87 129 116 121 110 120 241 238 308 300 99 68 169 50 317 334 62 296 279 5 324 211 97 312 330 286 130 240 231 216 188 173 171 249 51 187 152 177 152 183 190 219 226 89 179 199 318 18 16 61 273 301 263 250 275 288 331 304 159 189 259 260 125 51 152 162 242 246 306 322 352 352 331 322 67 88 47
19 15 355 293 187 207 34 139 154 219 169 122 113 123 113 150 213 300 17 265 115 79 48 65 330 165 60 215 127 65 265 63 307 59 310 26 4 298 217 245 211 273 189 226 255 210 278 173 196 187 167 221 212 46 169 166 224 128 114 90 86 100 76 172 264 298 296 303 273 148 182 262 282 226 137 108 256 239 180 124 317 332 319 333 352 58 50 22
20 10 344 350 124 101 107 42 232 161 106 119 127 126 109 166 233 238 242 243 38 285 132 122 180 313 339 158 202 49 235 68 27 34 33 200 99 115 58 358 206 181 227 227 251 269 79 190 18 189 217 243 92 59 170 204 68 110 165 119 144 125 162 123 77 287 305 251 260 156 187 220 287 297 146 178 216 334 200 104 238 319 27 24 52 84 77 7
18 5 354 326 167 186 137 224 212 134 128 124 127 144 218 235 252 228 240 223 344 210 72 169 170 114 165 194 204 87 242 348 126 175 127 185 142 246 317 210 114 209 256 255 256 240 188 134 213 235 30 80 117 114 68 51 109 212 177 287 312 243 137 203 185 157 246 270 191 159 180 194 242 214 232 103 113 222 214 2 341 20 351 354 21 49 33 33
2 359 345 299 308 298 192 235 133 123 127 136 144 202 240 283 172 222 227 110 278 150 192 136 26 138 97 36 309 147 184 152 142 195 202 177 193 194 201 230 162 246 235 196 250 87 228 213 192 58 240 208 164 231 137 111 130 196 203 250 258 278 343 252 148 228 200 245 63 12 154 226 237 243 201 286 333 161 239 301 328 7 334 331 39 36 37 36
350 345 298 244 295 218 279 90 131 131 121 158 104 16 197 147 262 191 203 146 273 40 187 32 94 173 139 108 229 122 28 225 131 206 101 77 238 236 248 253 51 255 282 62 294 298 269 68 153 207 290 210 190 202 171 215 177 181 198 196 201 262 239 260 265 256 288 267 101 163 198 242 274 286 235 253 240 53 62 338 29 358 333 21 35 32 32 33
338 329 42 199 208 228 83 147 151 153 134 120 145 88 141 237 233 67 195 192 228 50 64 124 65 67 194 246 7 166 237 196 163 183 193 184 195 263 219 206 177 242 225 288 269 286 295 272 194 164 201 138 194 220 274 353 161 197 193 184 217 216 235 269 225 258 265 309 35 233 150 237 328 33 13 24 39 23 51 43 1 344 51 63 53 46 37 31
322 308 212 222 232 239 197 174 157 180 142 137 144 200 228 241 262 242 215 197 268 294 142 52 150 110 238 211 240 264 233 281 123 130 191 188 214 212 204 203 183 189 80 269 209 170 222 260 51 359 343 129 189 101 93 96 146 144 87 28 280 236 229 247 297 303 315 328 254 168 227 323 236 58 233 219 292 348 15 37 37 45 52 49 45 34 29 28
331 311 169 230 200 206 176 171 169 178 162 164 187 215 226 207 239 159 242 143 128 237 198 161 136 244 247 230 174 223 103 222 99 192 216 215 275 243 163 230 173 181 174 209 151 269 171 256 96 119 8 206 184 141 195 172 242 134 141 206 208 45 194 272 288 240 78 275 253 245 253 247 269 270 256 103 124 114 88 65 57 51 50 51 43 31 25 24
322 317 213 198 210 175 168 170 171 167 174 185 204 236 230 248 221 209 212 178 202 120 153 257 220 205 222 241 150 170 161 128 227 175 244 126 262 206 223 240 124 205 212 290 252 180 270 282 133 166 188 44 313 319 193 323 132 108 215 210 75 66 23 236 262 46 222 237 261 228 260 270 272 297 108 145 17 74 57 55 53 54 45 46 39 34 27 22
307 271 268 248 212 158 168 168 163 170 177 194 217 233 84 237 176 222 109 126 339 184 231 204 270 165 263 252 252 143 171 210 154 151 255 165 273 115 166 187 57 298 300 316 246 344 25 284 213 342 79 155 67 219 201 201 312 268 50 357 240 219 228 183 85 229 220 239 257 227 262 269 267 266 306 338 3 69 48 42 44 40 44 46 40 36 32 26
243 257 272 214 177 165 165 156 167 166 188 213 216 241 227 236 72 188 199 178 79 111 234 239 247 349 275 252 253 41 163 211 144 202 223 194 228 77 63 187 155 138 346 195 207 103 11 269 289 129 125 124 201 210 237 158 125 103 317 315 24 12 245 222 201 218 302 262 251 233 214 253 236 274 327 325 67 61 77 53 56 58 52 56 48 42 36 31
191 161 250 66 229 166 157 158 163 187 203 216 213 223 87 9 233 22 339 205 240 185 233 219 211 248 214 250 121 258 321 357 192 258 240 300 263 195 244 219 178 161 57 9 14 342 251 327 266 86 285 334 250 180 218 187 187 157 161 304 5 100 357 46 313 210 227 263 248 272 248 238 257 308 299 356 77 74 73 77 66 69 79 76 71 54 46 42
245 220 226 40 92 152 146 159 184 202 213 240 256 248 242 250 79 332 50 331 191 19 215 210 143 228 302 308 246 118 249 202 188 238 213 291 229 272 45 51 353 13 19 15 357 306 3 201 249 260 259 223 239 219 225 209 176 190 186 224 221 224 229 242 251 158 217 213 236 245 254 242 263 274 50 101 83 93 73 81 76 54 66 84 84 83 70 51
177 154 164 58 318 165 159 178 208 190 224 216 223 207 238 259 258 244 191 32 14 241 66 201 238 257 251 250 258 262 260 256 241 246 213 243 214 216 137 25 277 158 198 262 221 194 253 211 236 252 241 257 265 287 266 238 250 255 246 255 216 236 227 241 259 244 233 225 231 241 273 250 151 89 100 102 114 106 125 112 111 80 45 40 52 62 77 75
202 212 37 22 355 193 173 198 196 203 222 229 59 291 163 279 195 12 115 120 224 209 132 227 227 248 241 250 259 264 243 260 224 257 248 232 260 284 347 320 344 336 311 298 326 315 78 242 266 254 270 279 280 273 71 227 225 238 245 237 235 238 232 242 252 285 266 273 257 258 245 14 323 153 119 140 130 137 123 109 104 118 90 54 43 34 23 28
34 295 325 103 1 327 197 194 202 209 224 240 242 244 208 231 259 245 215 211 182 169 205 227 331 218 263 290 183 249 211 272 215 242 253 272 249 71 2 28 356 152 300 294 276 318 260 240 247 304 310 298 290 239 137 66 151 214 205 58 236 296 9 317 307 170 257 191 241 254 253 212 184 205 149 144 142 120 113 97 88 89 87 78 63 60 49 13
123 282 264 305 301 267 214 247 222 207 214 222 230 241 242 254 233 252 249 245 251 223 185 252 256 85 217 76 305 29 148 237 283 344 170 254 191 78 24 17 29 95 26 325 25 350 279 237 239 265 270 273 274 271 274 189 105 28 306 228 206 310 306 322 266 256 260 172 219 229 260 257 263 309 313 313 63 107 97 90 90 91 97 99 108 93 116 229
221 150 206 352 63 115 308 195 27 233 218 216 233 238 249 247 249 130 198 255 230 236 237 250 357 139 210 232 247 247 244 168 201 257 302 216 219 42 103 356 35 102 143 77 29 69 247 324 274 261 256 257 268 302 99 127 283 263 276 312 296 294 285 256 270 260 252 285 274 262 274 282 285 292 286 288 32 343 16 69 71 94 96 193 254 277 301 280
293 178 172 182 83 256 179 90 153 234 185 186 216 207 233 231 236 243 196 232 223 210 200 224 208 216 221 231 245 259 254 257 230 236 248 263 274 80 26 100 72 28 326 326 6 87 207 240 221 247 252 266 276 274 291 61 267 251 253 255 255 251 250 251 243 252 298 295 267 231 267 273 272 276 276 286 286 93 20 1 4 323 317 309 307 314 303 308
169 273 74 315 232 200 192 239 174 224 256 71 226 290 250 208 204 222 89 164 67 295 196 311 214 225 226 238 187 233 187 221 197 227 123 51 340 318 237 62 76 343 28 2 329 183 242 261 264 267 267 268 270 277 273 267 250 254 246 260 262 261 254 246 248 254 254 247 267 291 281 274 269 268 274 292 66 156 165 289 297 283 296 281 296 299 311 316
70 344 13 313 188 301 335 31 42 174 234 205 248 271 259 250 250 241 207 5 106 328 233 227 190 127 160 120 155 232 270 296 246 108 162 280 168 307 261 233 172 72 43 1 348 295 282 259 257 329 299 306 294 292 285 281 287 275 264 264 268 271 268 267 269 261 254 258 261 265 266 267 273 278 46 80 72 86 271 280 252 263 260 269 264 278 271 277
263 198 172 59 75 42 4 7 32 355 232 220 235 232 233 231 246 240 247 207 253 227 81 261 275 26 10 43 272 260 259 263 283 282 256 149 264 201 230 276 304 57 52 358 323 315 280 275 34 96 296 282 282 286 286 280 285 276 275 273 266 263 264 266 270 266 268 264 260 257 259 261 262 87 106 96 110 354 291 275 278 282 277 262 261 262 270 265
275 41 5 133 116 171 97 259 190 207 225 229 227 259 253 241 250 244 227 13 249 261 285 256 90 130 128 152 236 242 334 189 82 201 101 85 224 31 49 309 78 323 321 148 199 268 320 256 311 323 302 285 285 269 279 298 291 284 283 276 267 262 266 254 250 253 255 263 264 268 263 262 109 102 93 171 231 308 295 296 297 290 285 269 268 273 271 275
73 304 131 17 42 205 135 166 145 167 227 227 203 225 247 254 55 113 193 69 44 63 83 104 72 105 231 231 235 237 142 111 119 97 353 323 302 296 279 253 276 260 283 265 239 283 261 289 292 291 285 255 272 279 331 334 302 282 250 248 254 258 252 258 258 260 256 266 269 259 266 11 130 134 96 47 217 283 279 282 282 285 277 262 267 272 276 280